Time,TemperatureF,DewpointF,PressureIn,WindDirection,WindDirectionDegrees,WindSpeedMPH,WindSpeedGustMPH,Humidity,HourlyPrecipIn,Conditions,Clouds,dailyrainin,SoftwareType,DateUTC
2013-12-22 00:01:00,62.1,60.4,29.98,SSW,212,0.0,0.0,94,0.04,RA,,0.00,WeatherDisplay:10.37,2013-12-22 05:01:00,
2013-12-22 00:06:00,62.0,60.3,29.97,SSW,193,4.2,5.8,94,0.05,RA,,0.01,WeatherDisplay:10.37,2013-12-22 05:06:00,
2013-12-22 00:11:00,62.0,60.6,29.97,SSW,202,1.5,10.0,95,0.07,RA,,0.03,WeatherDisplay:10.37,2013-12-22 05:11:00,
2013-12-22 00:17:00,62.0,60.6,29.97,South,187,0.0,3.5,95,0.09,RA,,0.05,WeatherDisplay:10.37,2013-12-22 05:17:00,
2013-12-22 00:22:00,61.9,60.5,29.97,South,186,0.0,0.0,95,0.10,RA,,0.06,WeatherDisplay:10.37,2013-12-22 05:22:00,
2013-12-22 00:27:00,61.9,60.5,29.97,WSW,242,1.7,5.8,95,0.10,RA,,0.08,WeatherDisplay:10.37,2013-12-22 05:27:00,
2013-12-22 00:32:00,61.9,60.5,29.97,South,188,1.4,3.5,95,0.10,RA,,0.09,WeatherDisplay:10.37,2013-12-22 05:32:00,
2013-12-22 00:37:00,61.8,60.4,29.98,South,181,0.4,1.0,95,0.10,RA,,0.10,WeatherDisplay:10.37,2013-12-22 05:37:00,
2013-12-22 00:42:00,61.8,60.4,29.98,WSW,237,2.1,4.6,95,0.10,RA,,0.10,WeatherDisplay:10.37,2013-12-22 05:42:00,
2013-12-22 00:47:00,61.8,60.4,29.98,SSW,210,6.2,11.5,95,0.11,RA,,0.11,WeatherDisplay:10.37,2013-12-22 05:47:00,
2013-12-22 00:52:00,61.8,60.4,29.97,SSW,210,2.1,4.6,95,0.11,RA,,0.11,WeatherDisplay:10.37,2013-12-22 05:52:00,
2013-12-22 00:57:00,61.8,60.4,29.97,SW,215,2.7,5.8,95,0.11,,,0.11,WeatherDisplay:10.37,2013-12-22 05:57:00,
2013-12-22 01:02:00,62.0,60.8,29.96,SSW,208,0.5,5.8,96,0.12,RA,,0.12,WeatherDisplay:10.37,2013-12-22 06:02:00,
2013-12-22 01:07:00,62.0,60.8,29.96,SSW,213,4.1,9.2,96,0.12,RA,,0.13,WeatherDisplay:10.37,2013-12-22 06:07:00,
2013-12-22 01:12:00,62.0,60.8,29.97,South,181,6.6,11.5,96,0.12,RA,,0.15,WeatherDisplay:10.37,2013-12-22 06:12:00,
2013-12-22 01:17:00,62.0,60.8,29.97,SSW,209,3.4,4.6,96,0.10,RA,,0.15,WeatherDisplay:10.37,2013-12-22 06:17:00,
2013-12-22 01:22:00,62.0,60.6,29.97,SSW,208,2.2,3.5,95,0.11,RA,,0.17,WeatherDisplay:10.37,2013-12-22 06:22:00,
2013-12-22 01:27:00,62.0,60.6,29.97,WSW,250,4.8,11.5,95,0.11,RA,,0.19,WeatherDisplay:10.37,2013-12-22 06:27:00,
2013-12-22 01:32:00,62.3,61.1,29.97,SW,227,4.3,12.7,96,0.10,RA,,0.19,WeatherDisplay:10.37,2013-12-22 06:32:00,
2013-12-22 01:37:00,62.6,61.1,29.97,SSW,198,4.9,10.4,95,0.09,,,0.20,WeatherDisplay:10.37,2013-12-22 06:37:00,
2013-12-22 01:42:00,62.9,61.4,29.97,SSW,200,3.1,5.8,95,0.10,RA,,0.20,WeatherDisplay:10.37,2013-12-22 06:42:00,
2013-12-22 01:47:00,62.9,61.4,29.96,SSW,200,0.6,11.5,95,0.09,RA,,0.21,WeatherDisplay:10.37,2013-12-22 06:47:00,
2013-12-22 01:52:00,62.8,61.3,29.96,South,182,6.7,16.1,95,0.10,RA,,0.21,WeatherDisplay:10.37,2013-12-22 06:52:00,
2013-12-22 01:57:00,62.7,61.2,29.97,SSW,197,8.0,12.0,95,0.11,RA,,0.22,WeatherDisplay:10.37,2013-12-22 06:57:00,
2013-12-22 01:59:00,62.8,61.3,29.97,WSW,240,7.5,10.4,95,0.10,RA,,0.23,WeatherDisplay:10.37,2013-12-22 06:59:00,
2013-12-22 02:04:00,62.7,61.2,29.97,SW,216,1.7,1.7,95,0.11,RA,,0.23,WeatherDisplay:10.37,2013-12-22 07:04:00,
2013-12-22 02:09:00,62.7,61.2,29.97,SSW,192,6.3,12.7,95,0.10,RA,,0.24,WeatherDisplay:10.37,2013-12-22 07:09:00,
2013-12-22 02:14:00,62.7,61.2,29.97,SW,225,4.9,11.5,95,0.09,RA,,0.24,WeatherDisplay:10.37,2013-12-22 07:14:00,
2013-12-22 02:19:00,62.7,61.2,29.97,South,171,2.6,10.4,95,0.09,,,0.24,WeatherDisplay:10.37,2013-12-22 07:19:00,
2013-12-22 02:24:00,62.7,61.2,29.96,SSW,209,4.9,16.1,95,0.08,RA,,0.26,WeatherDisplay:10.37,2013-12-22 07:24:00,
2013-12-22 02:29:00,62.7,61.2,29.97,South,174,3.9,6.0,95,0.07,RA,,0.26,WeatherDisplay:10.37,2013-12-22 07:29:00,
2013-12-22 02:34:00,62.7,61.2,29.96,SSW,197,7.8,11.5,95,0.07,,,0.26,WeatherDisplay:10.37,2013-12-22 07:34:00,
2013-12-22 02:39:00,62.8,61.3,29.96,SSW,194,3.5,10.4,95,0.07,RA,,0.27,WeatherDisplay:10.37,2013-12-22 07:39:00,
2013-12-22 02:44:00,62.8,61.3,29.96,South,175,4.8,12.7,95,0.08,RA,,0.28,WeatherDisplay:10.37,2013-12-22 07:44:00,
2013-12-22 02:49:00,62.9,61.4,29.96,South,190,4.5,10.4,95,0.07,RA,,0.28,WeatherDisplay:10.37,2013-12-22 07:49:00,
2013-12-22 02:54:00,62.9,61.4,29.96,SSW,192,4.9,10.0,95,0.07,,,0.28,WeatherDisplay:10.37,2013-12-22 07:54:00,
2013-12-22 02:59:00,62.9,61.4,29.96,SSW,198,8.4,24.2,95,0.07,RA,,0.29,WeatherDisplay:10.37,2013-12-22 07:59:00,
2013-12-22 03:04:00,63.0,61.5,29.96,South,180,13.8,26.5,95,0.06,RA,,0.29,WeatherDisplay:10.37,2013-12-22 08:04:00,
2013-12-22 03:09:00,63.1,61.3,29.96,SSW,203,13.8,24.2,94,0.05,,,0.29,WeatherDisplay:10.37,2013-12-22 08:09:00,
2013-12-22 03:14:00,63.2,61.4,29.96,SW,220,9.1,16.1,94,0.05,,,0.29,WeatherDisplay:10.37,2013-12-22 08:14:00,
2013-12-22 03:19:00,63.4,61.6,29.96,South,188,6.2,18.4,94,0.05,,,0.29,WeatherDisplay:10.37,2013-12-22 08:19:00,
2013-12-22 03:24:00,63.3,61.5,29.96,SW,217,10.4,13.8,94,0.03,,,0.29,WeatherDisplay:10.37,2013-12-22 08:24:00,
2013-12-22 03:29:00,63.2,61.4,29.96,SSE,154,7.6,14.0,94,0.03,,,0.29,WeatherDisplay:10.37,2013-12-22 08:29:00,
2013-12-22 03:34:00,63.2,61.4,29.96,SW,224,6.5,17.3,94,0.04,RA,,0.30,WeatherDisplay:10.37,2013-12-22 08:34:00,
2013-12-22 03:39:00,63.1,61.3,29.96,SE,134,5.3,9.2,94,0.03,RA,,0.30,WeatherDisplay:10.37,2013-12-22 08:39:00,
2013-12-22 03:44:00,63.2,61.4,29.96,SSE,167,6.1,12.7,94,0.03,RA,,0.31,WeatherDisplay:10.37,2013-12-22 08:44:00,
2013-12-22 03:49:00,63.2,61.4,29.95,SSW,204,3.2,6.9,94,0.03,RA,,0.31,WeatherDisplay:10.37,2013-12-22 08:49:00,
2013-12-22 03:54:00,63.2,61.4,29.96,South,181,5.8,7.0,94,0.03,,,0.31,WeatherDisplay:10.37,2013-12-22 08:54:00,
2013-12-22 03:59:00,63.2,61.4,29.95,SW,215,9.1,11.5,94,0.02,,,0.31,WeatherDisplay:10.37,2013-12-22 08:59:00,
2013-12-22 04:04:00,63.2,61.4,29.95,South,173,8.3,12.7,94,0.02,,,0.31,WeatherDisplay:10.37,2013-12-22 09:04:00,
2013-12-22 04:09:00,63.1,61.6,29.96,SSW,213,3.0,11.5,95,0.02,,,0.31,WeatherDisplay:10.37,2013-12-22 09:09:00,
2013-12-22 04:14:00,63.0,61.5,29.95,SSW,201,4.2,11.5,95,0.02,,,0.31,WeatherDisplay:10.37,2013-12-22 09:14:00,
2013-12-22 04:19:00,63.1,61.6,29.95,South,173,8.0,11.5,95,0.02,,,0.31,WeatherDisplay:10.37,2013-12-22 09:19:00,
2013-12-22 04:25:00,63.1,61.6,29.95,SW,223,3.3,10.4,95,0.02,,,0.31,WeatherDisplay:10.37,2013-12-22 09:25:00,
2013-12-22 04:30:00,63.0,61.5,29.95,SW,229,4.8,11.5,95,0.03,RA,,0.32,WeatherDisplay:10.37,2013-12-22 09:30:00,
2013-12-22 04:35:00,62.9,61.4,29.95,SW,217,6.6,12.0,95,0.02,RA,,0.32,WeatherDisplay:10.37,2013-12-22 09:35:00,
2013-12-22 04:40:00,62.9,61.4,29.94,SW,228,4.9,10.4,95,0.02,,,0.32,WeatherDisplay:10.37,2013-12-22 09:40:00,
2013-12-22 04:45:00,62.9,61.4,29.94,SSW,197,3.7,9.2,95,0.01,,,0.32,WeatherDisplay:10.37,2013-12-22 09:45:00,
2013-12-22 04:50:00,62.9,61.4,29.94,SW,217,2.4,10.4,95,0.01,,,0.32,WeatherDisplay:10.37,2013-12-22 09:50:00,
2013-12-22 04:55:00,62.9,61.4,29.94,SSW,213,3.7,11.5,95,0.01,,,0.32,WeatherDisplay:10.37,2013-12-22 09:55:00,
2013-12-22 05:00:00,63.0,61.2,29.94,SSW,211,8.3,13.0,94,0.01,,,0.32,WeatherDisplay:10.37,2013-12-22 10:00:00,
2013-12-22 05:05:00,63.1,61.3,29.94,SW,217,4.5,10.4,94,0.01,,,0.32,WeatherDisplay:10.37,2013-12-22 10:05:00,
2013-12-22 05:10:00,63.1,61.3,29.94,SSW,206,6.3,10.0,94,0.01,,,0.32,WeatherDisplay:10.37,2013-12-22 10:10:00,
2013-12-22 05:15:00,63.2,61.4,29.94,WSW,252,4.8,13.8,94,0.01,,,0.32,WeatherDisplay:10.37,2013-12-22 10:15:00,
2013-12-22 05:20:00,63.2,61.1,29.95,SW,223,6.3,13.8,93,0.01,,,0.32,WeatherDisplay:10.37,2013-12-22 10:20:00,
2013-12-22 05:25:00,63.2,61.1,29.95,SSW,203,2.4,6.9,93,0.01,,,0.32,WeatherDisplay:10.37,2013-12-22 10:25:00,
2013-12-22 05:30:00,63.2,61.1,29.95,WSW,252,3.3,5.8,93,0.00,,,0.32,WeatherDisplay:10.37,2013-12-22 10:30:00,
2013-12-22 05:35:00,63.3,61.2,29.95,SSW,206,5.7,13.8,93,0.00,,,0.32,WeatherDisplay:10.37,2013-12-22 10:35:00,
2013-12-22 05:40:00,63.3,61.2,29.95,WSW,241,4.3,9.2,93,0.00,,,0.32,WeatherDisplay:10.37,2013-12-22 10:40:00,
2013-12-22 05:45:00,63.4,61.0,29.95,SW,229,4.2,9.2,92,0.00,,,0.32,WeatherDisplay:10.37,2013-12-22 10:45:00,
2013-12-22 05:50:00,63.6,61.2,29.96,SSW,213,1.4,9.2,92,0.00,,,0.32,WeatherDisplay:10.37,2013-12-22 10:50:00,
2013-12-22 05:55:00,63.6,60.9,29.97,SW,223,2.1,5.8,91,0.00,,,0.32,WeatherDisplay:10.37,2013-12-22 10:55:00,
2013-12-22 06:00:00,63.8,61.1,29.97,WSW,256,1.8,4.6,91,0.00,,,0.32,WeatherDisplay:10.37,2013-12-22 11:00:00,
2013-12-22 06:05:00,64.0,61.0,29.97,WSW,252,8.0,16.1,90,0.00,,,0.32,WeatherDisplay:10.37,2013-12-22 11:05:00,
2013-12-22 06:10:00,64.0,61.0,29.97,WSW,248,10.4,18.4,90,0.01,RA,,0.33,WeatherDisplay:10.37,2013-12-22 11:10:00,
2013-12-22 06:15:00,63.9,61.2,29.96,SW,225,3.2,5.8,91,0.01,RA,,0.33,WeatherDisplay:10.37,2013-12-22 11:15:00,
2013-12-22 06:20:00,63.8,61.1,29.96,SW,220,0.0,0.0,91,0.01,,,0.33,WeatherDisplay:10.37,2013-12-22 11:20:00,
2013-12-22 06:25:00,63.7,61.0,29.96,SSW,202,3.7,6.0,91,0.01,,,0.33,WeatherDisplay:10.37,2013-12-22 11:25:00,
2013-12-22 06:30:00,63.6,60.6,29.96,SSW,205,4.4,10.4,90,0.01,,,0.33,WeatherDisplay:10.37,2013-12-22 11:30:00,
2013-12-22 06:35:00,63.7,60.7,29.97,SW,223,7.5,12.7,90,0.01,,,0.33,WeatherDisplay:10.37,2013-12-22 11:35:00,
2013-12-22 06:40:00,63.7,60.7,29.97,SSW,195,3.0,6.9,90,0.01,,,0.33,WeatherDisplay:10.37,2013-12-22 11:40:00,
2013-12-22 06:45:00,63.7,60.7,29.96,SSW,192,0.0,0.0,90,0.01,,,0.33,WeatherDisplay:10.37,2013-12-22 11:45:00,
2013-12-22 06:50:00,63.5,60.5,29.96,SW,218,2.3,6.9,90,0.01,,,0.33,WeatherDisplay:10.37,2013-12-22 11:50:00,
2013-12-22 06:55:00,63.5,60.8,29.96,SSW,212,6.7,16.1,91,0.01,,,0.33,WeatherDisplay:10.37,2013-12-22 11:55:00,
2013-12-22 07:00:00,63.5,60.8,29.96,SW,216,7.6,15.0,91,0.01,,,0.33,WeatherDisplay:10.37,2013-12-22 12:00:00,
2013-12-22 07:05:00,63.5,60.8,29.96,SW,236,5.9,11.5,91,0.01,CLR,,0.33,WeatherDisplay:10.37,2013-12-22 12:05:00,
2013-12-22 07:10:00,63.6,60.9,29.96,SSW,204,7.3,17.0,91,0.00,CLR,,0.33,WeatherDisplay:10.37,2013-12-22 12:10:00,
2013-12-22 07:15:00,63.6,60.9,29.96,SW,223,2.0,6.9,91,0.00,CLR,,0.33,WeatherDisplay:10.37,2013-12-22 12:15:00,
2013-12-22 07:20:00,63.6,60.9,29.96,SW,219,4.8,11.5,91,0.00,CLR,,0.33,WeatherDisplay:10.37,2013-12-22 12:20:00,
2013-12-22 07:25:00,63.5,61.1,29.96,SSW,211,0.0,0.0,92,0.00,CLR,,0.33,WeatherDisplay:10.37,2013-12-22 12:25:00,
2013-12-22 07:30:00,63.4,61.0,29.96,SSE,163,2.5,9.2,92,0.01,RA,,0.34,WeatherDisplay:10.37,2013-12-22 12:30:00,
2013-12-22 07:35:00,63.3,61.2,29.96,South,177,1.5,4.0,93,0.01,RA,,0.34,WeatherDisplay:10.37,2013-12-22 12:35:00,
2013-12-22 07:40:00,63.2,61.1,29.95,SSW,212,0.0,0.0,93,0.01,CLR,,0.34,WeatherDisplay:10.37,2013-12-22 12:40:00,
2013-12-22 07:45:00,63.1,61.0,29.95,South,183,0.4,3.5,93,0.01,CLR,,0.34,WeatherDisplay:10.37,2013-12-22 12:45:00,
2013-12-22 07:50:00,63.0,61.2,29.95,South,190,0.0,0.0,94,0.01,CLR,,0.34,WeatherDisplay:10.37,2013-12-22 12:50:00,
2013-12-22 07:55:00,62.9,61.1,29.96,SSW,202,3.2,8.1,94,0.01,CLR,,0.34,WeatherDisplay:10.37,2013-12-22 12:55:00,
2013-12-22 08:00:00,62.9,61.1,29.96,SSW,208,1.7,3.5,94,0.01,CLR,,0.34,WeatherDisplay:10.37,2013-12-22 13:00:00,
2013-12-22 08:05:00,62.9,61.1,29.96,SSW,200,0.4,7.0,94,0.01,CLR,,0.34,WeatherDisplay:10.37,2013-12-22 13:05:00,
2013-12-22 08:10:00,62.8,61.3,29.96,SW,215,0.8,6.9,95,0.01,CLR,,0.34,WeatherDisplay:10.37,2013-12-22 13:10:00,
2013-12-22 08:15:00,62.8,61.3,29.96,SW,220,1.6,4.0,95,0.01,CLR,,0.34,WeatherDisplay:10.37,2013-12-22 13:15:00,
2013-12-22 08:20:00,62.7,61.2,29.97,SW,233,4.3,10.4,95,0.01,CLR,,0.35,WeatherDisplay:10.37,2013-12-22 13:20:00,
2013-12-22 08:25:00,62.7,61.2,29.97,WSW,237,0.8,2.0,95,0.02,RA,,0.35,WeatherDisplay:10.37,2013-12-22 13:25:00,
2013-12-22 08:30:00,62.7,61.2,29.97,SW,229,2.1,4.0,95,0.01,RA,,0.35,WeatherDisplay:10.37,2013-12-22 13:30:00,
2013-12-22 08:35:00,62.7,61.2,29.97,WSW,248,5.1,10.4,95,0.02,RA,,0.36,WeatherDisplay:10.37,2013-12-22 13:35:00,
2013-12-22 08:40:00,62.8,61.3,29.97,SSW,212,1.2,4.6,95,0.02,RA,,0.36,WeatherDisplay:10.37,2013-12-22 13:40:00,
2013-12-22 08:45:00,62.8,61.3,29.98,SSW,201,3.1,4.6,95,0.02,CLR,,0.36,WeatherDisplay:10.37,2013-12-22 13:45:00,
2013-12-22 08:50:00,62.8,61.3,29.98,SW,227,0.0,0.0,95,0.02,CLR,,0.36,WeatherDisplay:10.37,2013-12-22 13:50:00,
2013-12-22 08:55:00,62.7,61.2,29.98,SSW,210,2.2,3.5,95,0.02,CLR,,0.36,WeatherDisplay:10.37,2013-12-22 13:55:00,
2013-12-22 09:01:00,62.7,61.2,29.99,SW,217,0.0,0.0,95,0.03,RA,,0.37,WeatherDisplay:10.37,2013-12-22 14:01:00,
2013-12-22 09:06:00,62.7,61.2,29.99,SW,220,0.0,0.0,95,0.03,CLR,,0.37,WeatherDisplay:10.37,2013-12-22 14:06:00,
2013-12-22 09:11:00,62.6,61.1,30.00,SW,228,1.5,4.6,95,0.04,RA,,0.38,WeatherDisplay:10.37,2013-12-22 14:11:00,
2013-12-22 09:16:00,62.6,61.1,30.00,WSW,239,0.0,0.0,95,0.05,RA,,0.39,WeatherDisplay:10.37,2013-12-22 14:16:00,
2013-12-22 09:21:00,62.6,61.4,30.00,WSW,249,0.0,0.0,96,0.04,RA,,0.39,WeatherDisplay:10.37,2013-12-22 14:21:00,
2013-12-22 09:26:00,62.5,61.3,30.00,WSW,254,0.0,1.2,96,0.05,RA,,0.40,WeatherDisplay:10.37,2013-12-22 14:26:00,
2013-12-22 09:31:00,61.3,59.6,30.00,NNW,328,1.8,3.5,94,0.08,RA,,0.43,WeatherDisplay:10.37,2013-12-22 14:31:00,
2013-12-22 09:36:00,59.7,57.7,30.01,WNW,298,5.9,11.5,93,0.11,RA,,0.47,WeatherDisplay:10.37,2013-12-22 14:36:00,
2013-12-22 09:41:00,59.0,57.0,30.01,WNW,299,0.0,0.0,93,0.15,RA,,0.51,WeatherDisplay:10.37,2013-12-22 14:41:00,
2013-12-22 09:46:00,58.7,57.0,30.02,WNW,289,0.0,0.0,94,0.20,RA,,0.56,WeatherDisplay:10.37,2013-12-22 14:46:00,
2013-12-22 09:51:00,58.3,56.6,30.02,WNW,289,0.0,0.0,94,0.25,RA,,0.61,WeatherDisplay:10.37,2013-12-22 14:51:00,
2013-12-22 09:56:00,58.0,56.3,30.02,WNW,289,0.0,0.0,94,0.26,RA,,0.63,WeatherDisplay:10.37,2013-12-22 14:56:00,
2013-12-22 10:01:00,57.9,56.5,30.03,WNW,289,0.0,0.0,95,0.29,RA,,0.66,WeatherDisplay:10.37,2013-12-22 15:01:00,
2013-12-22 10:06:00,57.7,56.3,30.02,WNW,291,0.0,0.0,95,0.30,RA,,0.67,WeatherDisplay:10.37,2013-12-22 15:06:00,
2013-12-22 10:11:00,57.6,56.2,30.02,WNW,291,0.0,0.0,95,0.30,RA,,0.68,WeatherDisplay:10.37,2013-12-22 15:11:00,
2013-12-22 10:16:00,57.5,56.1,30.01,WNW,291,0.0,0.0,95,0.32,RA,,0.71,WeatherDisplay:10.37,2013-12-22 15:16:00,
2013-12-22 10:21:00,57.4,56.0,30.02,WNW,292,0.0,0.0,95,0.34,RA,,0.73,WeatherDisplay:10.37,2013-12-22 15:21:00,
2013-12-22 10:26:00,57.3,55.9,30.02,WNW,292,0.0,0.0,95,0.35,RA,,0.76,WeatherDisplay:10.37,2013-12-22 15:26:00,
2013-12-22 10:31:00,57.2,55.8,30.02,WNW,293,0.0,0.0,95,0.34,RA,,0.77,WeatherDisplay:10.37,2013-12-22 15:31:00,
2013-12-22 10:36:00,57.1,55.7,30.02,NNE,15,0.0,0.0,95,0.30,RA,,0.77,WeatherDisplay:10.37,2013-12-22 15:36:00,
2013-12-22 10:41:00,57.1,55.7,30.04,North,10,0.0,0.0,95,0.28,RA,,0.79,WeatherDisplay:10.37,2013-12-22 15:41:00,
2013-12-22 10:46:00,57.0,55.6,30.05,NNE,15,0.0,0.0,95,0.27,RA,,0.83,WeatherDisplay:10.37,2013-12-22 15:46:00,
2013-12-22 10:51:00,56.9,55.5,30.04,NNE,15,0.0,0.0,95,0.29,RA,,0.90,WeatherDisplay:10.37,2013-12-22 15:51:00,
2013-12-22 10:56:00,56.9,55.8,30.02,NNE,15,0.0,0.0,96,0.34,RA,,0.98,WeatherDisplay:10.37,2013-12-22 15:56:00,
2013-12-22 11:01:00,56.8,55.7,30.02,NNE,15,0.0,0.0,96,0.38,RA,,1.04,WeatherDisplay:10.37,2013-12-22 16:01:00,
2013-12-22 11:06:00,56.7,55.6,30.01,NNE,15,0.0,0.0,96,0.40,RA,,1.07,WeatherDisplay:10.37,2013-12-22 16:06:00,
2013-12-22 11:11:00,56.7,55.6,30.01,North,10,0.0,0.0,96,0.40,RA,,1.08,WeatherDisplay:10.37,2013-12-22 16:11:00,
2013-12-22 11:16:00,56.8,55.7,30.03,North,10,0.0,0.0,96,0.39,RA,,1.10,WeatherDisplay:10.37,2013-12-22 16:16:00,
2013-12-22 11:21:00,56.8,55.7,30.03,North,10,0.0,0.0,96,0.38,RA,,1.12,WeatherDisplay:10.37,2013-12-22 16:21:00,
2013-12-22 11:26:00,56.7,55.6,30.03,North,10,0.0,0.0,96,0.41,RA,,1.17,WeatherDisplay:10.37,2013-12-22 16:26:00,
2013-12-22 11:31:00,56.7,55.6,30.02,NNE,15,0.0,0.0,96,0.43,RA,,1.21,WeatherDisplay:10.37,2013-12-22 16:31:00,
2013-12-22 11:36:00,56.7,55.6,30.03,NNE,15,0.0,0.0,96,0.45,RA,,1.22,WeatherDisplay:10.37,2013-12-22 16:36:00,
2013-12-22 11:41:00,56.7,55.6,30.03,North,10,0.0,0.0,96,0.44,RA,,1.23,WeatherDisplay:10.37,2013-12-22 16:41:00,
2013-12-22 11:46:00,56.7,55.6,30.03,North,10,0.0,0.0,96,0.42,RA,,1.25,WeatherDisplay:10.37,2013-12-22 16:46:00,
2013-12-22 11:51:00,56.6,55.5,30.03,North,10,0.0,0.0,96,0.36,RA,,1.26,WeatherDisplay:10.37,2013-12-22 16:51:00,
2013-12-22 11:56:00,56.6,55.5,30.03,North,10,0.0,0.0,96,0.31,RA,,1.28,WeatherDisplay:10.37,2013-12-22 16:56:00,
2013-12-22 12:01:00,56.6,55.5,30.03,North,10,0.0,0.0,96,0.27,RA,,1.32,WeatherDisplay:10.37,2013-12-22 17:01:00,
2013-12-22 12:06:00,56.5,55.4,30.02,North,10,0.0,0.0,96,0.28,RA,,1.36,WeatherDisplay:10.37,2013-12-22 17:06:00,
2013-12-22 12:11:00,56.5,55.4,30.01,North,10,0.0,0.0,96,0.31,RA,,1.39,WeatherDisplay:10.37,2013-12-22 17:11:00,
2013-12-22 12:16:00,56.5,55.4,30.00,North,10,0.0,0.0,96,0.30,RA,,1.40,WeatherDisplay:10.37,2013-12-22 17:16:00,
2013-12-22 12:21:00,56.6,55.5,30.01,North,10,0.0,0.0,96,0.30,RA,,1.41,WeatherDisplay:10.37,2013-12-22 17:21:00,
2013-12-22 12:26:00,56.6,55.5,30.01,North,10,0.0,0.0,96,0.25,RA,,1.42,WeatherDisplay:10.37,2013-12-22 17:26:00,
2013-12-22 12:31:00,56.5,55.4,30.01,North,10,0.0,0.0,96,0.24,RA,,1.44,WeatherDisplay:10.37,2013-12-22 17:31:00,
2013-12-22 12:36:00,56.5,55.4,30.01,North,10,0.0,0.0,96,0.24,RA,,1.47,WeatherDisplay:10.37,2013-12-22 17:36:00,
2013-12-22 12:41:00,56.5,55.4,30.01,North,10,0.0,0.0,96,0.27,RA,,1.50,WeatherDisplay:10.37,2013-12-22 17:41:00,
2013-12-22 12:46:00,56.5,55.4,30.00,North,10,0.0,0.0,96,0.27,RA,,1.52,WeatherDisplay:10.37,2013-12-22 17:46:00,
2013-12-22 12:51:00,56.6,55.5,30.01,North,10,0.0,0.0,96,0.28,RA,,1.54,WeatherDisplay:10.37,2013-12-22 17:51:00,
2013-12-22 12:56:00,56.5,55.4,30.00,North,10,0.0,0.0,96,0.27,RA,,1.55,WeatherDisplay:10.37,2013-12-22 17:56:00,
2013-12-22 13:01:00,56.5,55.4,30.01,North,10,0.0,0.0,96,0.25,RA,,1.56,WeatherDisplay:10.37,2013-12-22 18:01:00,
2013-12-22 13:06:00,56.5,55.4,30.01,North,10,0.0,0.0,96,0.23,RA,,1.58,WeatherDisplay:10.37,2013-12-22 18:06:00,
2013-12-22 13:11:00,56.5,55.4,30.01,North,10,0.0,0.0,96,0.20,RA,,1.59,WeatherDisplay:10.37,2013-12-22 18:11:00,
2013-12-22 13:16:00,56.5,55.4,30.01,North,10,0.0,0.0,96,0.21,RA,,1.61,WeatherDisplay:10.37,2013-12-22 18:16:00,
2013-12-22 13:21:00,56.5,55.4,30.01,North,10,0.0,0.0,96,0.21,RA,,1.62,WeatherDisplay:10.37,2013-12-22 18:21:00,
2013-12-22 13:26:00,56.5,55.4,30.00,North,10,0.0,0.0,96,0.22,RA,,1.63,WeatherDisplay:10.37,2013-12-22 18:26:00,
2013-12-22 13:31:00,56.5,55.4,30.00,North,10,0.0,0.0,96,0.20,RA,,1.64,WeatherDisplay:10.37,2013-12-22 18:31:00,
2013-12-22 13:36:00,56.4,55.3,29.98,North,10,0.0,0.0,96,0.20,RA,,1.66,WeatherDisplay:10.37,2013-12-22 18:36:00,
2013-12-22 13:41:00,56.4,55.3,29.98,North,10,0.0,0.0,96,0.17,RA,,1.68,WeatherDisplay:10.37,2013-12-22 18:41:00,
2013-12-22 13:46:00,56.4,55.6,29.98,North,10,0.0,0.0,97,0.18,RA,,1.70,WeatherDisplay:10.37,2013-12-22 18:46:00,
2013-12-22 13:51:00,56.3,55.5,29.97,North,10,0.0,0.0,97,0.18,RA,,1.73,WeatherDisplay:10.37,2013-12-22 18:51:00,
2013-12-22 13:56:00,56.3,55.5,29.97,North,10,0.0,0.0,97,0.19,RA,,1.74,WeatherDisplay:10.37,2013-12-22 18:56:00,
2013-12-22 14:01:00,56.2,55.4,29.97,North,10,0.0,0.0,97,0.20,RA,,1.76,WeatherDisplay:10.37,2013-12-22 19:01:00,
2013-12-22 14:06:00,56.2,55.4,29.96,North,10,0.0,0.0,97,0.19,RA,,1.78,WeatherDisplay:10.37,2013-12-22 19:06:00,
2013-12-22 14:11:00,56.1,55.0,29.97,North,10,0.0,0.0,96,0.20,RA,,1.80,WeatherDisplay:10.37,2013-12-22 19:11:00,
2013-12-22 14:17:00,56.0,54.9,29.98,North,10,0.0,0.0,96,0.20,RA,,1.81,WeatherDisplay:10.37,2013-12-22 19:17:00,
2013-12-22 14:22:00,56.0,55.2,29.98,North,10,0.0,2.3,97,0.20,RA,,1.82,WeatherDisplay:10.37,2013-12-22 19:22:00,
2013-12-22 14:27:00,56.1,55.3,29.99,North,10,0.0,0.0,97,0.19,RA,,1.82,WeatherDisplay:10.37,2013-12-22 19:27:00,
2013-12-22 14:32:00,56.1,55.3,29.98,North,10,0.0,0.0,97,0.18,,,1.82,WeatherDisplay:10.37,2013-12-22 19:32:00,
2013-12-22 14:37:00,56.2,55.4,29.98,North,10,0.0,0.0,97,0.17,RA,,1.83,WeatherDisplay:10.37,2013-12-22 19:37:00,
2013-12-22 14:42:00,56.1,55.3,29.98,North,10,0.0,0.0,97,0.15,RA,,1.83,WeatherDisplay:10.37,2013-12-22 19:42:00,
2013-12-22 14:47:00,56.1,55.3,29.99,North,10,0.0,0.0,97,0.15,RA,,1.85,WeatherDisplay:10.37,2013-12-22 19:47:00,
2013-12-22 14:52:00,56.1,55.3,29.98,North,10,0.0,0.0,97,0.13,RA,,1.86,WeatherDisplay:10.37,2013-12-22 19:52:00,
2013-12-22 14:57:00,56.1,55.3,29.97,North,10,0.0,0.0,97,0.12,RA,,1.86,WeatherDisplay:10.37,2013-12-22 19:57:00,
2013-12-22 15:02:00,56.1,55.3,29.97,North,10,0.0,0.0,97,0.10,,,1.86,WeatherDisplay:10.37,2013-12-22 20:02:00,
2013-12-22 15:07:00,56.2,55.4,29.97,North,10,0.0,0.0,97,0.09,RA,,1.87,WeatherDisplay:10.37,2013-12-22 20:07:00,
2013-12-22 15:12:00,56.2,55.4,29.97,North,10,0.0,0.0,97,0.07,RA,,1.87,WeatherDisplay:10.37,2013-12-22 20:12:00,
2013-12-22 15:17:00,56.2,55.4,29.99,North,10,0.0,0.0,97,0.06,,,1.87,WeatherDisplay:10.37,2013-12-22 20:17:00,
2013-12-22 15:22:00,56.3,55.5,30.00,North,10,0.0,0.0,97,0.06,RA,,1.88,WeatherDisplay:10.37,2013-12-22 20:22:00,
2013-12-22 15:27:00,56.3,55.5,30.00,North,10,0.0,0.0,97,0.07,RA,,1.89,WeatherDisplay:10.37,2013-12-22 20:27:00,
2013-12-22 15:32:00,56.3,55.5,30.00,North,10,0.0,0.0,97,0.08,RA,,1.90,WeatherDisplay:10.37,2013-12-22 20:32:00,
2013-12-22 15:37:00,56.2,55.4,30.00,North,10,0.0,0.0,97,0.08,RA,,1.91,WeatherDisplay:10.37,2013-12-22 20:37:00,
2013-12-22 15:42:00,56.3,55.5,30.00,North,10,0.0,0.0,97,0.11,RA,,1.94,WeatherDisplay:10.37,2013-12-22 20:42:00,
2013-12-22 15:47:00,56.3,55.5,30.00,North,10,0.0,0.0,97,0.10,RA,,1.95,WeatherDisplay:10.37,2013-12-22 20:47:00,
2013-12-22 15:52:00,56.3,55.5,29.99,North,10,0.0,0.0,97,0.10,RA,,1.96,WeatherDisplay:10.37,2013-12-22 20:52:00,
2013-12-22 15:57:00,56.3,55.5,30.00,North,10,0.0,0.0,97,0.10,RA,,1.96,WeatherDisplay:10.37,2013-12-22 20:57:00,
2013-12-22 16:02:00,56.3,55.5,30.00,North,10,0.0,0.0,97,0.10,CLR,,1.96,WeatherDisplay:10.37,2013-12-22 21:02:00,
2013-12-22 16:07:00,56.2,55.4,30.00,North,10,0.0,0.0,97,0.09,CLR,,1.96,WeatherDisplay:10.37,2013-12-22 21:07:00,
2013-12-22 16:12:00,56.2,55.4,30.00,North,10,0.0,0.0,97,0.09,CLR,,1.96,WeatherDisplay:10.37,2013-12-22 21:12:00,
2013-12-22 16:17:00,56.3,55.5,30.01,North,10,0.0,0.0,97,0.10,RA,,1.97,WeatherDisplay:10.37,2013-12-22 21:17:00,
2013-12-22 16:22:00,56.3,55.5,30.00,North,10,0.0,0.0,97,0.09,RA,,1.97,WeatherDisplay:10.37,2013-12-22 21:22:00,
2013-12-22 16:27:00,56.2,55.4,30.00,North,10,0.0,0.0,97,0.08,CLR,,1.97,WeatherDisplay:10.37,2013-12-22 21:27:00,
2013-12-22 16:28:00,56.2,55.4,30.00,North,10,0.0,0.0,97,0.08,CLR,,1.97,WeatherDisplay:10.37,2013-12-22 21:28:00,
2013-12-22 16:33:00,56.2,55.4,30.00,North,10,0.0,0.0,97,0.08,RA,,1.98,WeatherDisplay:10.37,2013-12-22 21:33:00,
2013-12-22 16:38:00,56.1,55.3,30.00,North,10,0.0,0.0,97,0.06,RA,,1.98,WeatherDisplay:10.37,2013-12-22 21:38:00,
2013-12-22 16:43:00,56.1,55.3,30.01,North,10,0.0,0.0,97,0.05,RA,,1.99,WeatherDisplay:10.37,2013-12-22 21:43:00,
2013-12-22 16:48:00,56.0,55.2,30.00,North,10,0.0,0.0,97,0.04,RA,,1.99,WeatherDisplay:10.37,2013-12-22 21:48:00,
2013-12-22 16:53:00,56.0,55.2,30.01,North,10,0.0,0.0,97,0.03,CLR,,1.99,WeatherDisplay:10.37,2013-12-22 21:53:00,
2013-12-22 16:58:00,56.2,55.4,30.02,SSE,160,1.4,3.5,97,0.03,CLR,,1.99,WeatherDisplay:10.37,2013-12-22 21:58:00,
2013-12-22 17:03:00,56.6,55.8,30.02,SE,142,3.0,4.6,97,0.04,RA,,2.00,WeatherDisplay:10.37,2013-12-22 22:03:00,
2013-12-22 17:08:00,56.8,56.0,30.01,SE,133,1.8,3.5,97,0.04,RA,,2.00,WeatherDisplay:10.37,2013-12-22 22:08:00,
2013-12-22 17:13:00,56.9,56.1,30.02,SE,133,0.0,1.0,97,0.05,RA,,2.01,WeatherDisplay:10.37,2013-12-22 22:13:00,
2013-12-22 17:18:00,56.9,56.1,30.01,SE,133,0.0,0.0,97,0.04,RA,,2.01,WeatherDisplay:10.37,2013-12-22 22:18:00,
2013-12-22 17:23:00,56.9,56.1,30.02,SE,133,0.0,0.0,97,0.05,RA,,2.02,WeatherDisplay:10.37,2013-12-22 22:23:00,
2013-12-22 17:28:00,56.8,56.0,30.01,SE,133,0.0,0.0,97,0.05,RA,,2.02,WeatherDisplay:10.37,2013-12-22 22:28:00,
2013-12-22 17:33:00,56.9,56.1,30.01,SE,133,0.0,0.0,97,0.05,RA,,2.04,WeatherDisplay:10.37,2013-12-22 22:33:00,
2013-12-22 17:38:00,56.8,56.0,30.00,SE,133,0.0,0.0,97,0.07,RA,,2.05,WeatherDisplay:10.37,2013-12-22 22:38:00,
2013-12-22 17:43:00,56.8,56.0,30.00,SE,133,0.0,0.0,97,0.07,RA,,2.06,WeatherDisplay:10.37,2013-12-22 22:43:00,
2013-12-22 17:48:00,56.7,55.9,30.01,SE,133,0.0,0.0,97,0.07,RA,,2.06,WeatherDisplay:10.37,2013-12-22 22:48:00,
2013-12-22 17:53:00,56.8,56.0,30.01,SE,136,1.8,3.5,97,0.07,CLR,,2.06,WeatherDisplay:10.37,2013-12-22 22:53:00,
2013-12-22 17:58:00,56.9,56.1,30.00,SE,137,0.0,0.0,97,0.07,CLR,,2.06,WeatherDisplay:10.37,2013-12-22 22:58:00,
2013-12-22 18:03:00,56.9,56.1,30.00,SE,136,0.0,0.0,97,0.06,,,2.06,WeatherDisplay:10.37,2013-12-22 23:03:00,
2013-12-22 18:08:00,56.9,56.1,29.99,SE,137,0.0,0.0,97,0.06,,,2.06,WeatherDisplay:10.37,2013-12-22 23:08:00,
2013-12-22 18:13:00,56.8,56.0,30.00,SE,136,0.0,0.0,97,0.05,,,2.06,WeatherDisplay:10.37,2013-12-22 23:13:00,
2013-12-22 18:18:00,56.6,55.8,30.00,SE,137,0.0,0.0,97,0.05,,,2.06,WeatherDisplay:10.37,2013-12-22 23:18:00,
2013-12-22 18:23:00,56.4,55.6,30.01,SE,137,0.0,0.0,97,0.04,,,2.06,WeatherDisplay:10.37,2013-12-22 23:23:00,
2013-12-22 18:28:00,56.3,55.5,30.02,SE,136,0.0,0.0,97,0.05,RA,,2.07,WeatherDisplay:10.37,2013-12-22 23:28:00,
2013-12-22 18:33:00,56.3,55.5,30.02,SE,137,0.0,0.0,97,0.04,RA,,2.07,WeatherDisplay:10.37,2013-12-22 23:33:00,
2013-12-22 18:38:00,56.1,55.3,30.02,SE,137,0.0,0.0,97,0.02,,,2.07,WeatherDisplay:10.37,2013-12-22 23:38:00,
2013-12-22 18:43:00,56.0,55.2,30.01,SE,137,0.0,0.0,97,0.01,,,2.07,WeatherDisplay:10.37,2013-12-22 23:43:00,
2013-12-22 18:48:00,55.8,55.0,30.02,SE,137,0.0,0.0,97,0.01,,,2.07,WeatherDisplay:10.37,2013-12-22 23:48:00,
2013-12-22 18:53:00,55.7,54.9,30.01,SE,136,0.0,0.0,97,0.01,,,2.07,WeatherDisplay:10.37,2013-12-22 23:53:00,
2013-12-22 18:58:00,55.7,54.9,30.00,SE,136,0.0,0.0,97,0.01,,,2.07,WeatherDisplay:10.37,2013-12-22 23:58:00,
2013-12-22 19:03:00,55.6,54.8,30.00,SE,137,0.0,0.0,97,0.01,,,2.07,WeatherDisplay:10.37,2013-12-23 00:03:00,
2013-12-22 19:08:00,55.5,54.7,29.99,SE,136,0.0,0.0,97,0.01,,,2.07,WeatherDisplay:10.37,2013-12-23 00:08:00,
2013-12-22 19:13:00,55.5,54.7,30.00,SE,136,0.0,0.0,97,0.01,,,2.07,WeatherDisplay:10.37,2013-12-23 00:13:00,
2013-12-22 19:18:00,55.4,54.6,30.00,SE,137,0.0,0.0,97,0.01,,,2.07,WeatherDisplay:10.37,2013-12-23 00:18:00,
2013-12-22 19:23:00,55.4,54.6,30.00,SE,137,0.0,0.0,97,0.01,,,2.07,WeatherDisplay:10.37,2013-12-23 00:23:00,
2013-12-22 19:28:00,55.4,54.6,30.00,SE,137,0.0,0.0,97,0.00,,,2.07,WeatherDisplay:10.37,2013-12-23 00:28:00,
2013-12-22 19:33:00,55.7,54.9,30.00,SE,137,0.0,0.0,97,0.00,,,2.07,WeatherDisplay:10.37,2013-12-23 00:33:00,
2013-12-22 19:38:00,56.0,55.2,30.00,SE,136,0.0,0.0,97,0.00,,,2.07,WeatherDisplay:10.37,2013-12-23 00:38:00,
2013-12-22 19:43:00,56.2,55.4,30.00,SE,137,0.0,0.0,97,0.01,RA,,2.08,WeatherDisplay:10.37,2013-12-23 00:43:00,
2013-12-22 19:48:00,56.6,56.6,30.00,SE,139,0.3,3.5,100,0.01,RA,,2.08,WeatherDisplay:10.37,2013-12-23 00:48:00,
2013-12-22 19:53:00,56.8,56.0,30.00,SE,142,1.6,3.5,97,0.01,,,2.08,WeatherDisplay:10.37,2013-12-23 00:53:00,
2013-12-22 19:58:00,56.9,56.1,30.00,SE,142,0.0,0.0,97,0.01,,,2.08,WeatherDisplay:10.37,2013-12-23 00:58:00,
2013-12-22 20:03:00,57.0,56.2,30.01,SE,142,0.0,1.2,97,0.02,RA,,2.09,WeatherDisplay:10.37,2013-12-23 01:03:00,
2013-12-22 20:08:00,57.1,57.1,30.01,SE,140,0.8,3.5,100,0.03,RA,,2.11,WeatherDisplay:10.37,2013-12-23 01:08:00,
2013-12-22 20:13:00,57.1,57.1,30.01,SE,141,0.0,0.0,100,0.04,RA,,2.12,WeatherDisplay:10.37,2013-12-23 01:13:00,
2013-12-22 20:18:00,57.1,57.1,30.01,SE,140,0.0,0.0,100,0.05,RA,,2.12,WeatherDisplay:10.37,2013-12-23 01:18:00,
2013-12-22 20:23:00,57.1,57.1,30.01,SE,140,0.0,0.0,100,0.06,RA,,2.13,WeatherDisplay:10.37,2013-12-23 01:23:00,
2013-12-22 20:28:00,57.1,56.3,30.01,SE,140,0.0,0.0,97,0.06,RA,,2.13,WeatherDisplay:10.37,2013-12-23 01:28:00,
2013-12-22 20:33:00,57.0,56.2,30.01,SE,140,0.0,0.0,97,0.07,RA,,2.14,WeatherDisplay:10.37,2013-12-23 01:33:00,
2013-12-22 20:38:00,57.0,56.2,30.02,SE,140,0.0,0.0,97,0.08,RA,,2.16,WeatherDisplay:10.37,2013-12-23 01:38:00,
2013-12-22 20:43:00,57.0,56.2,30.02,SE,140,0.0,0.0,97,0.09,RA,,2.17,WeatherDisplay:10.37,2013-12-23 01:43:00,
2013-12-22 20:48:00,56.9,56.1,30.02,SE,140,0.0,0.0,97,0.11,RA,,2.19,WeatherDisplay:10.37,2013-12-23 01:48:00,
2013-12-22 20:53:00,57.0,56.2,30.01,SE,140,0.2,3.5,97,0.13,RA,,2.21,WeatherDisplay:10.37,2013-12-23 01:53:00,
2013-12-22 20:58:00,57.0,56.2,30.00,SE,138,0.6,3.0,97,0.14,RA,,2.22,WeatherDisplay:10.37,2013-12-23 01:58:00,
2013-12-22 21:03:00,57.1,56.3,30.01,SSE,150,0.8,3.0,97,0.14,RA,,2.23,WeatherDisplay:10.37,2013-12-23 02:03:00,
2013-12-22 21:08:00,57.1,56.3,30.02,SSE,150,0.0,0.0,97,0.14,RA,,2.24,WeatherDisplay:10.37,2013-12-23 02:08:00,
2013-12-22 21:13:00,57.1,56.3,30.01,SSE,150,0.0,0.0,97,0.15,RA,,2.26,WeatherDisplay:10.37,2013-12-23 02:13:00,
2013-12-22 21:18:00,57.1,56.3,30.00,SSE,150,0.0,0.0,97,0.16,RA,,2.28,WeatherDisplay:10.37,2013-12-23 02:18:00,
2013-12-22 21:23:00,57.1,56.3,30.00,SSE,150,0.0,0.0,97,0.16,RA,,2.30,WeatherDisplay:10.37,2013-12-23 02:23:00,
2013-12-22 21:28:00,57.1,56.3,30.00,SSE,150,0.0,0.0,97,0.18,RA,,2.32,WeatherDisplay:10.37,2013-12-23 02:28:00,
2013-12-22 21:33:00,57.1,56.3,30.00,SSE,150,0.0,0.0,97,0.19,RA,,2.33,WeatherDisplay:10.37,2013-12-23 02:33:00,
2013-12-22 21:38:00,57.1,56.3,30.01,SSE,150,0.0,0.0,97,0.20,RA,,2.35,WeatherDisplay:10.37,2013-12-23 02:38:00,
2013-12-22 21:43:00,57.0,56.2,30.00,SSE,150,0.0,0.0,97,0.20,RA,,2.37,WeatherDisplay:10.37,2013-12-23 02:43:00,
2013-12-22 21:48:00,56.9,56.1,30.00,SSE,150,0.0,0.0,97,0.19,RA,,2.38,WeatherDisplay:10.37,2013-12-23 02:48:00,
2013-12-22 21:54:00,56.9,56.1,30.00,SSE,150,0.0,0.0,97,0.18,RA,,2.39,WeatherDisplay:10.37,2013-12-23 02:54:00,
2013-12-22 21:59:00,56.9,56.1,30.01,SSE,150,0.0,0.0,97,0.17,RA,,2.39,WeatherDisplay:10.37,2013-12-23 02:59:00,
2013-12-22 22:04:00,57.0,56.2,30.00,SSE,150,0.0,0.0,97,0.16,,,2.39,WeatherDisplay:10.37,2013-12-23 03:04:00,
2013-12-22 22:09:00,57.0,56.2,30.01,SSE,150,0.0,0.0,97,0.16,RA,,2.40,WeatherDisplay:10.37,2013-12-23 03:09:00,
2013-12-22 22:14:00,56.9,56.1,30.01,SSE,150,0.0,0.0,97,0.16,RA,,2.42,WeatherDisplay:10.37,2013-12-23 03:14:00,
2013-12-22 22:19:00,56.9,56.1,30.01,SSE,150,0.0,0.0,97,0.16,RA,,2.44,WeatherDisplay:10.37,2013-12-23 03:19:00,
2013-12-22 22:24:00,57.0,56.2,30.01,SSE,150,0.0,0.0,97,0.15,RA,,2.45,WeatherDisplay:10.37,2013-12-23 03:24:00,
2013-12-22 22:29:00,56.9,56.1,30.01,SSE,150,0.0,0.0,97,0.13,RA,,2.45,WeatherDisplay:10.37,2013-12-23 03:29:00,
2013-12-22 22:34:00,56.9,56.1,30.02,SSE,150,0.0,0.0,97,0.12,,,2.45,WeatherDisplay:10.37,2013-12-23 03:34:00,
2013-12-22 22:39:00,56.9,56.1,30.02,SSE,150,0.0,0.0,97,0.12,RA,,2.47,WeatherDisplay:10.37,2013-12-23 03:39:00,
2013-12-22 22:44:00,57.0,56.2,30.02,SSE,150,0.0,0.0,97,0.12,RA,,2.49,WeatherDisplay:10.37,2013-12-23 03:44:00,
2013-12-22 22:49:00,57.0,56.2,30.02,SSE,150,0.0,0.0,97,0.13,RA,,2.51,WeatherDisplay:10.37,2013-12-23 03:49:00,
2013-12-22 22:54:00,57.1,56.3,30.02,SSE,150,0.0,0.0,97,0.14,RA,,2.53,WeatherDisplay:10.37,2013-12-23 03:54:00,
2013-12-22 22:59:00,57.0,56.2,30.01,SSE,150,0.0,0.0,97,0.16,RA,,2.55,WeatherDisplay:10.37,2013-12-23 03:59:00,
2013-12-22 23:04:00,56.9,56.1,30.02,SSE,150,0.0,0.0,97,0.17,RA,,2.56,WeatherDisplay:10.37,2013-12-23 04:04:00,
2013-12-22 23:09:00,56.9,56.1,30.03,SSE,151,0.5,2.3,97,0.19,RA,,2.59,WeatherDisplay:10.37,2013-12-23 04:09:00,
2013-12-22 23:14:00,56.8,56.0,30.03,SSE,151,0.0,0.0,97,0.19,RA,,2.62,WeatherDisplay:10.37,2013-12-23 04:14:00,
2013-12-22 23:19:00,56.8,56.0,30.03,SSE,151,0.0,0.0,97,0.20,RA,,2.64,WeatherDisplay:10.37,2013-12-23 04:19:00,
2013-12-22 23:24:00,56.7,55.9,30.02,SSE,151,0.0,0.0,97,0.21,RA,,2.66,WeatherDisplay:10.37,2013-12-23 04:24:00,
2013-12-22 23:29:00,56.7,55.9,30.02,SSE,151,0.0,0.0,97,0.21,RA,,2.66,WeatherDisplay:10.37,2013-12-23 04:29:00,
2013-12-22 23:34:00,56.6,55.8,30.02,SSE,151,0.0,0.0,97,0.22,RA,,2.67,WeatherDisplay:10.37,2013-12-23 04:34:00,
2013-12-22 23:39:00,56.6,55.8,30.02,SSE,151,0.0,0.0,97,0.20,RA,,2.67,WeatherDisplay:10.37,2013-12-23 04:39:00,
2013-12-22 23:44:00,56.6,55.8,30.02,SSE,151,0.0,0.0,97,0.18,,,2.67,WeatherDisplay:10.37,2013-12-23 04:44:00,
2013-12-22 23:49:00,56.6,55.8,30.02,SSE,151,0.0,0.0,97,0.16,,,2.67,WeatherDisplay:10.37,2013-12-23 04:49:00,
2013-12-22 23:54:00,56.6,55.8,30.02,SSE,151,0.0,0.0,97,0.14,,,2.67,WeatherDisplay:10.37,2013-12-23 04:54:00,
2013-12-22 23:59:00,56.5,55.7,30.02,SSE,151,0.0,0.0,97,0.12,,,2.67,WeatherDisplay:10.37,2013-12-23 04:59:00,